Flag for France Weather past 2 weeks in Le Mans, France

Now
70 °F

Mild.


Feels Like: 70 °F
Forecast: 61 / 74 °F
Wind: 5 mph from Southwest

Location: Le Mans Airport

Current Time: Jul 4, 2015 at 7:34:54 AM

Latest Report: Jul 4, 2015 at 7:00 AM


Visibility: N/A

Pressure: 30.09 "Hg

Humidity: 78%

Dew point: 63 °F

Location of Le MansLocation

Historic Weather in Le Mans — Graph

°F

Le Mans temperature yesterday

Maximum temperature yesterday: 95 °F (at 4:00 PM)
Minimum temperature yesterday: 64 °F (at 6:00 AM)
Average temperature yesterday: 80 °F

Past Weeks' High & Low Weather Summary

 TemperatureHumidityPressure
High97 °F (Jun 30, 6:00 PM)100% (Jun 23, 7:00 AM)30.24 "Hg (Jun 23, 7:00 AM)
Low45 °F (Jun 23, 5:30 AM)22% (Jun 26, 6:30 PM)29.86 "Hg (Jul 1, 8:00 AM)
Average71 °F57%30.10 "Hg
* Reported Jun 19 6:30 AM — Jul 4 6:30 AM, Le Mans, Weather by CustomWeather, © 2015

Note: Actual official high and low records may vary slightly from our data, if they occured in-between our weather recording intervals... More about our weather records

Advertising

Le Mans weather history for previous 24 hours

 ConditionsComfort  
Time TempWeatherWind HumidityBarometerVisibility
6:30 AM
Sat, Jul 4
68 °FMild.5 mph83%30.09 "HgN/A
6:00 AM70 °FMild.3 mph78%30.04 "HgN/A
5:30 AM70 °FMild.No wind78%30.04 "HgN/A
5:00 AM72 °FMild.5 mph78%30.04 "HgN/A
4:30 AM72 °FMild.2 mph78%30.04 "HgN/A
4:00 AM70 °FMild.2 mph83%30.04 "HgN/A
3:30 AM70 °FMild.2 mph83%30.04 "HgN/A
3:00 AM70 °FMild.1 mph83%30.01 "HgN/A
2:30 AM72 °FMild.1 mph78%30.01 "HgN/A
2:00 AM73 °FMild.No wind74%30.04 "HgN/A
1:30 AM79 °FWarm.2 mph61%30.04 "HgN/A
1:00 AM79 °FWarm.3 mph61%30.04 "HgN/A
12:30 AM81 °FWarm.3 mph62%30.01 "HgN/A
12:00 AM81 °FWarm.3 mph66%30.01 "HgN/A
11:30 PM
Fri, Jul 3
79 °FWarm.2 mph74%30.01 "HgN/A
11:00 PM81 °FWarm.2 mph70%30.01 "HgN/A
10:30 PM82 °FWarm.2 mph66%30.01 "HgN/A
10:00 PM86 °FWarm.2 mph55%29.98 "HgN/A
9:30 PM90 °FHot.3 mph49%29.98 "HgN/A
9:00 PM91 °FHot.5 mph46%29.98 "HgN/A
8:30 PM91 °FHot.5 mph44%29.98 "HgN/A
8:00 PM93 °FExtremely hot.6 mph41%29.98 "HgN/A
7:30 PM93 °FExtremely hot.3 mph41%29.98 "HgN/A
7:00 PM93 °FExtremely hot.7 mph41%29.98 "HgN/A
6:30 PM93 °FExtremely hot.9 mph39%29.98 "HgN/A
6:00 PM93 °FExtremely hot.10 mph39%30.01 "HgN/A
5:30 PM95 °FExtremely hot.9 mph34%30.01 "HgN/A
5:00 PM95 °FExtremely hot.10 mph32%30.01 "HgN/A
4:30 PM95 °FExtremely hot.9 mph30%30.04 "HgN/A
4:00 PM95 °FExtremely hot.10 mph32%30.04 "HgN/A
3:30 PM93 °FExtremely hot.9 mph34%30.04 "HgN/A
3:00 PM91 °FHot.10 mph36%30.07 "HgN/A
2:30 PM91 °FPassing clouds.7 mph36%30.07 "HgN/A
2:00 PM88 °FFog.8 mph43%30.09 "HgN/A
1:30 PM86 °FPassing clouds.7 mph46%30.09 "HgN/A
1:00 PM84 °FPassing clouds.7 mph48%30.12 "HgN/A
12:30 PM84 °FPassing clouds.12 mph51%30.12 "HgN/A
12:00 PM81 °FPassing clouds.9 mph54%30.15 "HgN/A
11:30 AM81 °FPassing clouds.7 mph54%30.15 "HgN/A
11:00 AM77 °FPassing clouds.8 mph57%30.15 "HgN/A
10:30 AM75 °FPassing clouds.9 mph61%30.18 "HgN/A
10:00 AM73 °FPassing clouds.12 mph65%30.18 "HgN/A
9:30 AM72 °FSunny.12 mph65%30.18 "Hg10 mi
9:00 AM70 °FPassing clouds.8 mph69%30.21 "HgN/A
8:30 AM68 °FPassing clouds.9 mph73%30.21 "HgN/A
8:00 AM66 °FSunny.10 mph78%30.21 "Hg10 mi
7:30 AM66 °FSunny.8 mph78%30.21 "Hg10 mi
7:00 AM64 °FClear.6 mph83%30.21 "Hg10 mi
Weather by CustomWeather, © 2015

See weather overviewHow to use our weather pages